Newberry, SC

8:12 PM EDT on July 27, 2016 (GMT -0400)
Newberry

Weather History for KEOE - October, 2012

Change the Weather History Date:

Thursday, October 11, 2012

  Actual Average (KFDW) Record (KFDW)
Temperature  
Mean Temperature 58 °F -  
Max Temperature 71 °F 74 °F 87 °F (2010)
Min Temperature 46 °F 49 °F 51 °F (2012)
Degree Days  
Heating Degree Days 6    
Growing Degree Days 8 (Base 50)    
Moisture  
Dew Point 48 °F    
Average Humidity 74    
Maximum Humidity 100    
Minimum Humidity 38    
Precipitation  
Precipitation 0.00 in - - ()
Sea Level Pressure  
Sea Level Pressure 30.26 in    
Wind  
Wind Speed 4 mph (NE)    
Max Wind Speed 10 mph    
Max Gust Speed -    
Visibility 10 miles    
Events      
Averages and records for this station are not official NWS values.
T = Trace of Precipitation, MM = Missing Value Source: NWS Daily Summary

Daily Weather History Graph

Daily Weather History Graph

Search for Another Location

Airport or City:

Trip Planner

Search our weather history database for the weather conditions in past years. The results will help you decide how hot, cold, wet, or windy it might be!

Date:

Astronomy

Oct. 11, 2012 Rise Set
Actual Time 7:29 AM EDT 6:56 PM EDT
Civil Twilight 7:03 AM EDT 7:21 PM EDT
Nautical Twilight 6:34 AM EDT 7:50 PM EDT
Astronomical Twilight 6:05 AM EDT 8:19 PM EDT
Moon 3:16 AM EDT (10/11) 4:23 PM EDT (10/11)
Length of Visible Light 12h 17m
Length of Day
11h 27m
Waning Crescent, 18% of the Moon is Illuminated
Oct 11
Waning Crescent
Oct 15
New
Oct 21
First Quarter
Oct 29
Full
Nov 6
Last Quarter

Hourly Weather History & Observations

Time (EDT) Temp. Windchill Dew Point Humidity Pressure Visibility Wind Dir Wind Speed Gust Speed Precip Events Conditions
12:15 AM 51.8 °F - 51.8 °F 100% 30.18 in 10.0 mi NW 3.5 mph - N/A   Clear
12:35 AM 51.8 °F - 51.8 °F 100% 30.18 in 10.0 mi Calm Calm - N/A   Clear
12:55 AM 51.8 °F - 51.8 °F 100% 30.18 in 10.0 mi Calm Calm - N/A   Clear
1:15 AM 51.8 °F - 51.8 °F 100% 30.18 in 10.0 mi Calm Calm - N/A   Clear
1:35 AM 51.8 °F - 51.8 °F 100% 30.19 in 10.0 mi NNE 3.5 mph - N/A   Clear
2:35 AM 48.2 °F - 48.2 °F 100% 30.19 in 10.0 mi North 4.6 mph - N/A   Clear
2:55 AM 48.2 °F - 48.2 °F 100% 30.19 in 10.0 mi North 5.8 mph - N/A   Clear
3:35 AM 50.0 °F - 50.0 °F 100% 30.19 in 10.0 mi North 5.8 mph - N/A   Clear
3:55 AM 50.0 °F - 50.0 °F 100% 30.19 in 10.0 mi North 3.5 mph - N/A   Clear
4:15 AM 50.0 °F - 50.0 °F 100% 30.20 in 10.0 mi North 4.6 mph - N/A   Clear
4:35 AM 50.0 °F - 50.0 °F 100% 30.21 in 10.0 mi NNE 5.8 mph - N/A   Clear
4:55 AM 48.2 °F - 48.2 °F 100% 30.21 in 10.0 mi North 3.5 mph - N/A   Clear
5:15 AM 50.0 °F - 50.0 °F 100% 30.22 in 10.0 mi NNE 3.5 mph - N/A   Clear
5:35 AM 48.2 °F - 48.2 °F 100% 30.23 in 10.0 mi NNE 5.8 mph - N/A   Clear
5:55 AM 48.2 °F - 48.2 °F 100% 30.23 in 10.0 mi NE 6.9 mph - N/A   Clear
6:15 AM 48.2 °F - 48.2 °F 100% 30.24 in 10.0 mi NE 5.8 mph - N/A   Clear
6:35 AM 48.2 °F - 48.2 °F 100% 30.24 in 10.0 mi NNE 5.8 mph - N/A   Clear
6:55 AM 48.2 °F - 48.2 °F 100% 30.25 in 10.0 mi NNE 5.8 mph - N/A   Clear
7:15 AM 46.4 °F 42.4 °F 46.4 °F 100% 30.26 in 10.0 mi NE 8.1 mph - N/A   Clear
7:35 AM 50.0 °F - 48.2 °F 94% 30.27 in 10.0 mi NE 6.9 mph - N/A   Clear
8:35 AM 51.8 °F - 50.0 °F 94% 30.29 in 10.0 mi NE 5.8 mph - N/A   Clear
8:55 AM 51.8 °F - 50.0 °F 94% 30.30 in 10.0 mi NE 8.1 mph - N/A   Clear
9:15 AM 53.6 °F - 48.2 °F 82% 30.31 in 10.0 mi NE 8.1 mph - N/A   Clear
9:35 AM 55.4 °F - 46.4 °F 72% 30.32 in 10.0 mi NE 8.1 mph - N/A   Clear
9:55 AM 57.2 °F - 46.4 °F 67% 30.32 in 10.0 mi NE 6.9 mph - N/A   Clear
10:15 AM 59.0 °F - 44.6 °F 59% 30.33 in 10.0 mi NE 10.4 mph - N/A   Clear
10:35 AM 59.0 °F - 44.6 °F 59% 30.33 in 10.0 mi NE 10.4 mph - N/A   Clear
10:55 AM 60.8 °F - 44.6 °F 55% 30.33 in 10.0 mi NE 8.1 mph - N/A   Clear
11:15 AM 60.8 °F - 44.6 °F 55% 30.33 in 10.0 mi NE 4.6 mph - N/A   Clear
11:35 AM 62.6 °F - 44.6 °F 52% 30.33 in 10.0 mi NE 9.2 mph - N/A   Clear
11:55 AM 64.4 °F - 42.8 °F 45% 30.33 in 10.0 mi East 4.6 mph - N/A   Clear
12:15 PM 64.4 °F - 42.8 °F 45% 30.32 in 10.0 mi NNE 6.9 mph - N/A   Clear
12:35 PM 66.2 °F - 42.8 °F 43% 30.32 in 10.0 mi Calm Calm - N/A   Clear
12:55 PM 68.0 °F - 42.8 °F 40% 30.31 in 10.0 mi East 4.6 mph - N/A   Clear
1:15 PM 68.0 °F - 42.8 °F 40% 30.31 in 10.0 mi Calm Calm - N/A   Clear
1:35 PM 68.0 °F - 42.8 °F 40% 30.30 in 10.0 mi SSW 5.8 mph - N/A   Clear
1:55 PM 68.0 °F - 42.8 °F 40% 30.29 in 10.0 mi East 4.6 mph - N/A   Clear
2:15 PM 69.8 °F - 42.8 °F 38% 30.28 in 10.0 mi Calm Calm - N/A   Clear
2:35 PM 69.8 °F - 42.8 °F 38% 30.28 in 10.0 mi SE 3.5 mph - N/A   Clear
2:55 PM 69.8 °F - 44.6 °F 40% 30.27 in 10.0 mi West 4.6 mph - N/A   Clear
3:15 PM 69.8 °F - 44.6 °F 40% 30.27 in 10.0 mi ESE 3.5 mph - N/A   Clear
3:35 PM 71.6 °F - 44.6 °F 38% 30.27 in 10.0 mi Calm Calm - N/A   Clear
3:55 PM 71.6 °F - 44.6 °F 38% 30.26 in 10.0 mi SSE 3.5 mph - N/A   Clear
4:15 PM 71.6 °F - 44.6 °F 38% 30.25 in 10.0 mi SSW 4.6 mph - N/A   Clear
4:35 PM 71.6 °F - 44.6 °F 38% 30.25 in 10.0 mi WSW 4.6 mph - N/A   Clear
5:15 PM 71.6 °F - 44.6 °F 38% 30.25 in 10.0 mi SSW 4.6 mph - N/A   Clear
5:35 PM 71.6 °F - 44.6 °F 38% 30.25 in 10.0 mi WSW 4.6 mph - N/A   Clear
5:55 PM 69.8 °F - 44.6 °F 40% 30.25 in 10.0 mi Calm Calm - N/A   Clear
6:35 PM 64.4 °F - 50.0 °F 59% 30.25 in 10.0 mi Calm Calm - N/A   Clear
7:15 PM 60.8 °F - 50.0 °F 68% 30.26 in 10.0 mi Calm Calm - N/A   Clear
7:35 PM 59.0 °F - 51.8 °F 77% 30.25 in 10.0 mi Calm Calm - N/A   Clear
7:55 PM 59.0 °F - 51.8 °F 77% 30.26 in 10.0 mi Calm Calm - N/A   Clear
8:15 PM 55.4 °F - 51.8 °F 88% 30.27 in 10.0 mi Calm Calm - N/A   Clear
8:35 PM 55.4 °F - 51.8 °F 88% 30.27 in 10.0 mi Calm Calm - N/A   Clear
9:15 PM 55.4 °F - 50.0 °F 82% 30.27 in 10.0 mi Calm Calm - N/A   Clear
9:35 PM 55.4 °F - 51.8 °F 88% 30.27 in 10.0 mi Calm Calm - N/A   Clear
9:55 PM 55.4 °F - 50.0 °F 82% 30.28 in 10.0 mi Calm Calm - N/A   Clear
10:15 PM 53.6 °F - 50.0 °F 88% 30.27 in 10.0 mi Calm Calm - N/A   Clear
10:55 PM 53.6 °F - 50.0 °F 88% 30.27 in 10.0 mi SSE 3.5 mph - N/A   Clear
11:15 PM 53.6 °F - 51.8 °F 94% 30.27 in 10.0 mi Calm Calm - N/A   Clear
11:35 PM 53.6 °F - 51.8 °F 94% 30.26 in 10.0 mi SSE 5.8 mph - N/A   Clear
11:55 PM 53.6 °F - 51.8 °F 94% 30.26 in 10.0 mi South 3.5 mph - N/A   Clear